AirNav   Air Wisconsin pilot careers
 
 698 users online  

9K8 Kingman Airport - Clyde Cessna Field
Kingman, Kansas, USA

GOING TO KINGMAN?


FAA INFORMATION EFFECTIVE 11 OCTOBER 2018

Location

FAA Identifier: 9K8
Lat/Long: 37-40-08.5000N / 098-07-26.0000W
37-40.141667N / 098-07.433333W
37.6690278 / -98.1238889
(estimated)
Elevation: 1606.7 ft. / 489.7 m (surveyed)
Variation: 06E (2005)
From city: 1 mile NW of KINGMAN, KS
Time zone: UTC -5 (UTC -6 during Standard Time)
Zip code: 67068

Airport Operations

Airport use: Open to the public
Activation date: 08/1945
Control tower: no
ARTCC: KANSAS CITY CENTER
FSS: WICHITA FLIGHT SERVICE STATION
NOTAMs facility: ICT (NOTAM-D service available)
Attendance: MON-FRI 0830-2000
Pattern altitude: 2406.7 ft. MSL
Wind indicator: lighted
Segmented circle: yes
Lights: ACTVT REIL RWY 18 & 36; PAPI RWY 18 & 36; HIRL 18/36. - CTAF.
Beacon: white-green (lighted land airport)
Operates sunset to sunrise.

Airport Communications

CTAF/UNICOM: 122.8
WX AWOS-3: 119.325 (620-532-1272)
WICHITA APPROACH: 125.5
WICHITA DEPARTURE: 125.5

Nearby radio navigation aids

VOR radial/distance  VOR name  Freq  Var
HUTr201/21.6HUTCHINSON VOR/DME116.8004E
ICTr253/26.0WICHITA VORTAC113.8007E
ANYr357/30.7ANTHONY VORTAC112.9007E

 
NDB name  Hdg/Dist  Freq  Var  ID
PRATT090/29.835607EPTT .--. - -

Airport Services

Fuel available: 100LL JET-A
SELF SVC FUEL AVBL WITH CREDIT CARD.
Parking: hangars and tiedowns
Airframe service: MAJOR
Powerplant service: MAJOR
Bottled oxygen: NONE
Bulk oxygen: NONE

Runway Information

Runway 18/36

Dimensions: 4300 x 75 ft. / 1311 x 23 m
Surface: concrete, in fair condition
Weight bearing capacity: 
Single wheel: 30.0
Double wheel: 30.0
Runway edge lights: high intensity
RUNWAY 18  RUNWAY 36
Latitude: 37-40.435357N37-39.734017N
Longitude: 098-07.279293W098-07.406043W
Elevation: 1598.9 ft.1596.7 ft.
Traffic pattern: rightleft
Runway heading: 182 magnetic, 188 true002 magnetic, 008 true
Markings: nonprecision, in good conditionnonprecision, in good condition
Visual slope indicator: 4-light PAPI on left (3.00 degrees glide path)4-light PAPI on left (3.00 degrees glide path)
Runway end identifier lights: yesyes
Touchdown point: yes, no lightsyes, no lights
Obstructions: 15 ft. road, 550 ft. from runway, 24:1 slope to clear45 ft. trees, 1290 ft. from runway, 24:1 slope to clear

Runway 11/29

Dimensions: 3400 x 60 ft. / 1036 x 18 m
Surface: concrete, in good condition
Weight bearing capacity: 
Single wheel: 30.0
Double wheel: 30.0
RUNWAY 11  RUNWAY 29
Latitude: 37-40.336685N37-40.087660N
Longitude: 098-07.864075W098-07.232798W
Elevation: 1606.7 ft.1592.6 ft.
Gradient: 0.5% UP
Traffic pattern: leftright
Runway heading: 111 magnetic, 117 true291 magnetic, 297 true
Markings: nonprecision, in good conditionnonprecision, in good condition
Touchdown point: yes, no lightsyes, no lights
Obstructions: 29 ft. trees, 1350 ft. from runway, 39:1 slope to clear30 ft. pline, marked, 978 ft. from runway, 25:1 slope to clear
POWER LINE MARKED WITH ORANGE BALLS.

Airport Ownership and Management from official FAA records

Ownership: Publicly-owned
Owner: CITY OF KINGMAN
324 NORTH MAIN
KINGMAN, KS 67068
Phone 620-532-3111
Manager: BOB CROW
2114 NORTH KOCH
KINGMAN, KS 67068
Phone (620) 532-1279
CITY MANAGER

Airport Operational Statistics

Aircraft based on the field: 25
Single engine airplanes: 25
    
Aircraft operations: avg 26/day *
60% local general aviation
40% transient general aviation
* for 12-month period ending 31 July 2018

Instrument Procedures

NOTE: All procedures below are presented as PDF files. If you need a reader for these files, you should download the free Adobe Reader.

NOT FOR NAVIGATION. Please procure official charts for flight.
FAA instrument procedures published for use from 11 October 2018 at 0901Z to 8 November 2018 at 0900Z.

 
IAPs - Instrument Approach Procedures
RNAV (GPS) RWY 18 **CHANGED**   download (219KB)
RNAV (GPS) RWY 36 **CHANGED**   download (225KB)
NOTE: Special Take-Off Minimums/Departure Procedures apply   download (147KB)

Other nearby airports with instrument procedures:

8K2 - Harper Municipal Airport (24 nm S)
KHUT - Hutchinson Regional Airport (27 nm NE)
KPTT - Pratt Regional Airport (30 nm W)
KANY - Anthony Municipal Airport (31 nm S)
KICT - Wichita Dwight D Eisenhower National Airport (33 nm E)
 
Loc | Ops | Rwys | IFR | FBO | Links
Com | Nav | Svcs | Stats | Notes

Kansas City Aviation Department
 
Area around 9K8 (Kingman Airport - Clyde Cessna Field)
 
Road maps at: MapQuest Bing Google
 
Aerial photo
WARNING: Photo may not be current or correct
Aerial photo of 9K8 (Kingman Airport - Clyde Cessna Field)
Do you have a better or more recent aerial photo of Kingman Airport - Clyde Cessna Field that you would like to share? If so, please send us your photo.

 
Sectional chart

 
Airport distance calculator
Flying to Kingman Airport - Clyde Cessna Field? Find the distance to fly.

From to 9K8

Sunrise and sunset
Times for 19-Oct-2018
 Local
(UTC-5)
 Zulu
(UTC)
Morning civil twilight07:1912:19
Sunrise07:4612:46
Sunset18:4923:49
Evening civil twilight19:1600:16

Current date and time
Zulu (UTC)  20-Oct-2018 03:59:43
Local (UTC-5)  19-Oct-2018 22:59:43
 
METAR
8K2 
24nm S 
SuperAWOS
200334Z AUTO 10SM 12/10 A3019
KHUT 
27nm NE 
200352Z AUTO 35008KT 10SM CLR 14/08 A3018 RMK AO2 SLP211 T01390083
KPTT 
30nm W 
200335Z AUTO 36008KT 10SM CLR 12/07 A3021 RMK AO2 T01180073
KP28 
31nm SW 
200256Z AUTO 36004KT 12/09 A3016 RMK AO1 SLP211 T01220094 51020
KICT 
33nm E 
200353Z 00000KT 10SM CLR 12/11 A3016 RMK AO2 SLP212 T01220111
KLYO 
41nm N 
200335Z AUTO 34009KT 10SM CLR 12/07 A3020 RMK AO2 T01240070
KIAB 
41nm E 
200256Z AUTO 25003KT 10SM CLR 14/12 A3014 RMK AO2 SLP208 T01360115 52014 $
KBEC 
43nm E 
200335Z AUTO 26004KT 10SM CLR 13/11 A3016 RMK AO2 T01260112
KAAO 
43nm E 
200354Z AUTO 27007KT 10SM CLR 13/13 A3017 RMK AO2 SLP215 T01330128
KEWK 
46nm NE 
200256Z AUTO 25005KT 10SM CLR 13/12 A3016 RMK AO2 SLP209 T01330117 51018
TAF
KHUT 
27nm NE 
191720Z 1918/2018 27011KT P6SM SCT020 SCT200 FM192100 29010KT P6SM SKC FM192300 34007KT P6SM SKC
KICT 
33nm E 
200107Z 2001/2024 VRB03KT P6SM SKC FM200300 34006KT P6SM SKC FM201500 36011KT P6SM SKC
NOTAMs
Click for the latest NOTAMs
NOTAMs are issued by the DoD/FAA and will open in a separate window not controlled by AirNav.

 

 
 

FBO, Fuel Providers, and Aircraft Ground Support

  
 Business Name 
 
 Contact 
 
 Services / Description 
 
Fuel Prices
 
Comments
  
City of Kingman 620-532-1279
[email]
Aviation fuel, Aircraft parking (ramp or tiedown), Flight training, Aircraft rental, Courtesy transportation, Pilots lounge / snooze room, Restrooms

More info about City of Kingman
independent
100LL
SS $4.69 
 Updated 11-Oct-2018
 
   write
SS=Self service
Update Fuel Prices
 

Would you like to see your business listed on this page?

 If your business provides an interesting product or service to pilots, flight crews, aircraft, or users of the Kingman Airport - Clyde Cessna Field, you should consider listing it here.  To start the listing process, click on the button below
 
Add a business
 

Other Pages about Kingman Airport - Clyde Cessna Field

skyways.lib.ks.us/...
 
Update a link
 
Copyright © AirNav, LLC. All rights reserved. Privacy Policy  Contact